{"data":{"norad_id":59574,"intl_designator":"2024-076L","name":"STARLINK-31751","alt_names":[],"object_type":"PAYLOAD","status":"ACTIVE","operator":null,"country":"US","launch_date":"2024-04-23","launch_site_code":"AFETR","launch_vehicle":null,"mission":null,"orbit_class":"UNKNOWN","rcs_meters":null,"size_class":null,"mass_kg":null,"dimensions":null,"purposes":["comms"],"wikipedia_slug":null,"has_3d_model":false,"image_url":null,"decayed_at":null,"tle_current":{"epoch":"2026-09-21T11:41:25.220544Z","epoch_age_seconds":82958,"freshness":"FRESH","line1":"1 59574U 24076L   26264.48709746 -.00000139  00000+0  44860-5 0  9994","line2":"2 59574  43.0051 343.5686 0001461 256.3190 103.7499 15.27584571136444","mean_motion":15.27584571,"eccentricity":0.0001461,"inclination_deg":43.0051,"raan_deg":343.5686,"arg_perigee_deg":256.319,"mean_anomaly_deg":103.7499,"bstar":4.486e-6,"rev_number":13644,"period_min":94.266466638723,"perigee_km":482.03299156644,"apogee_km":484.03782614431,"semimajor_km":6861.1724088554,"source":"CELESTRAK","updated_at":"2026-09-22T09:00:49.002573Z"}}}